This demonstration page uses our WeatherBlox Daily Observations layout. Learn more.

40.92945, -100.16068

Hourly Observations for December 14, 2017

Temp ( °F °C ) Dew Point ( °F °C ) Humidity (%) Winds ( mph kmh ) Pressure ( in mb ) Visibility ( mi km ) Precip ( " mm )
12:15 am 00:15 Clear 36 2.1 23 -5 60 60 NW 9 15 30.12 1020 10 16.09344 0 0
12:35 am 00:35 Clear 37 2.6 23 -5 58 58 NNW 9 15 30.12 1020 10 16.09344 0 0
12:55 am 00:55 Clear 37 2.9 23 -5.2 56 56 NNW 8 13 30.12 1020 10 16.09344 0 0
1:15 am 01:15 Clear 36 2 22 -5.3 59 59 NNW 7 11 30.12 1020 10 16.09344 0 0
1:35 am 01:35 Clear 34 1.1 22 -5.4 62 62 NW 6 9 30.12 1020 10 16.09344 0 0
1:55 am 01:55 Clear 32 0.1 22 -5.6 66 66 NNW 5 7 30.15 1021 10 16.09344 0 0
2:15 am 02:15 Clear 32 0.1 23 -5.2 68 68 NW 6 9 30.15 1021 10 16.09344 0 0
2:35 am 02:35 Mostly Cloudy 32 0.2 23 -5.2 67 67 NNE 5 7 30.18 1022 10 16.09344 0 0
2:55 am 02:55 Mostly Cloudy 32 0 22 -5.3 68 68 N 3 6 30.18 1022 10 16.09344 0 0
3:15 am 03:15 Mostly Cloudy 33 0.3 23 -5.2 67 67 NW 5 7 30.18 1022 10 16.09344 0 0
3:35 am 03:35 Mostly Cloudy 32 0.1 22 -5.3 67 67 NNW 6 9 30.18 1022 10 16.09344 0 0
3:55 am 03:55 Mostly Cloudy 32 0 22 -5.3 68 68 NNW 6 9 30.18 1022 10 16.09344 0 0
4:15 am 04:15 Cloudy 32 -0.2 23 -5.1 70 70 WNW 6 9 30.15 1021 10 16.09344 0 0
4:35 am 04:35 Partly Cloudy 32 0 23 -4.8 70 70 WNW 6 9 30.15 1021 10 16.09344 0 0
4:55 am 04:55 Clear 32 0 23 -4.9 70 70 W 3 6 30.15 1021 10 16.09344 0 0
5:15 am 05:15 Clear 32 -0.2 24 -4.7 72 72 WNW 7 11 30.15 1021 10 16.09344 0 0
5:35 am 05:35 Partly Cloudy 32 0.2 24 -4.7 70 70 WNW 8 13 30.15 1021 10 16.09344 0 0
5:55 am 05:55 Clear 33 0.6 24 -4.2 71 71 NW 7 11 30.15 1021 10 16.09344 0 0
6:15 am 06:15 Clear 35 1.8 25 -4 66 66 WNW 12 19 30.12 1020 10 16.09344 0 0
6:35 am 06:35 Partly Cloudy 37 2.5 26 -3.3 66 66 WNW 15 24 30.12 1020 10 16.09344 0 0
6:55 am 06:55 Mostly Cloudy 36 2.3 27 -3 68 68 NW 10 17 30.15 1021 10 16.09344 0 0
7:15 am 07:15 Cloudy 36 2.3 27 -2.7 70 70 WNW 10 17 30.15 1021 10 16.09344 0 0
7:35 am 07:35 Cloudy 36 2.3 28 -2.5 71 71 WNW 10 17 30.15 1021 10 16.09344 0 0
7:55 am 07:55 Cloudy 37 2.5 28 -2.1 72 72 WNW 10 17 30.15 1021 10 16.09344 0 0
8:15 am 08:15 Cloudy 37 2.8 29 -1.6 73 73 NW 12 19 30.15 1021 10 16.09344 0 0
8:35 am 08:35 Mostly Cloudy 38 3.1 30 -1.1 74 74 NW 10 17 30.15 1021 10 16.09344 0 0
8:55 am 08:55 Cloudy 38 3.5 30 -1.1 72 72 WNW 10 17 30.15 1021 10 16.09344 0 0
9:15 am 09:15 Cloudy with Light Drizzle 38 3.6 31 -0.5 75 75 NW 14 22 30.15 1021 10 16.09344 0 0
9:35 am 09:35 Cloudy 38 3.6 32 0.1 78 78 NW 12 19 30.15 1021 10 16.09344 0 0
9:55 am 09:55 Cloudy 39 4 32 0.1 76 76 NW 14 22 30.18 1022 10 16.09344 0 0
10:15 am 10:15 Cloudy 40 4.4 32 0 73 73 NW 12 19 30.18 1022 10 16.09344 0 0
10:35 am 10:35 Cloudy 40 4.6 32 0 72 72 NW 13 20 30.15 1021 10 16.09344 0 0
10:55 am 10:55 Cloudy 41 4.8 32 0 71 71 NW 15 24 30.15 1021 10 16.09344 0 0
11:15 am 11:15 Cloudy with Rain 39 4 32 -0.1 75 75 WNW 18 30 30.18 1022 10 16.09344 0 0
11:35 am 11:35 Cloudy with Light Rain 38 3.3 32 0.2 80 80 WNW 14 22 30.18 1022 10 16.09344 0 0
11:55 am 11:55 Cloudy with Light Drizzle 39 3.7 33 0.7 81 81 NW 16 26 30.18 1022 10 16.09344 0 0
12:15 pm 12:15 Cloudy with Light Drizzle 39 4.1 33 0.8 79 79 NW 18 30 30.15 1021 10 16.09344 0 0
12:35 pm 12:35 Cloudy 40 4.6 33 0.4 74 74 NNW 25 41 30.15 1021 10 16.09344 0 0
12:55 pm 12:55 Cloudy 40 4.6 32 0 72 72 NNW 26 43 30.15 1021 10 16.09344 0 0
1:15 pm 13:15 Cloudy 40 4.7 32 0 72 72 NNW 23 37 30.15 1021 10 16.09344 0 0
1:35 pm 13:35 Cloudy 39 4.1 30 -1 70 70 NNW 29 46 30.18 1022 10 16.09344 0 0
1:55 pm 13:55 Cloudy 39 4 31 -0.5 73 73 NNW 25 41 30.18 1022 10 16.09344 0 0
2:15 pm 14:15 Cloudy 39 4 31 -0.5 73 73 N 21 33 30.18 1022 10 16.09344 0 0
2:35 pm 14:35 Cloudy 39 3.7 30 -1.1 71 71 NNW 22 35 30.18 1022 10 16.09344 0 0
2:55 pm 14:55 Cloudy 39 4 29 -1.5 68 68 NNW 25 41 30.18 1022 10 16.09344 0 0
3:15 pm 15:15 Cloudy 38 3.5 29 -1.4 71 71 NNW 23 37 30.18 1022 10 16.09344 0 0
3:35 pm 15:35 Cloudy 39 3.9 28 -2 66 66 NNW 26 43 30.18 1022 10 16.09344 0 0
3:55 pm 15:55 Cloudy 38 3.5 28 -2.3 66 66 NNW 20 31 30.21 1023 10 16.09344 0 0
4:15 pm 16:15 Cloudy 38 3.3 28 -2.3 67 67 N 17 28 30.21 1023 10 16.09344 0 0
4:35 pm 16:35 Cloudy 38 3.2 28 -2.1 69 69 NNW 17 28 30.21 1023 10 16.09344 0 0
4:55 pm 16:55 Cloudy 38 3.1 28 -2.3 68 68 NNW 18 30 30.21 1023 10 16.09344 0 0
5:15 pm 17:15 Cloudy 37 3 28 -2.5 67 67 NNW 14 22 30.21 1023 10 16.09344 0 0
5:35 pm 17:35 Cloudy 37 2.6 28 -2.5 69 69 NNW 17 28 30.21 1023 10 16.09344 0 0
5:55 pm 17:55 Cloudy 37 2.7 28 -2.5 69 69 NNW 13 20 30.24 1024 10 16.09344 0 0
6:15 pm 18:15 Cloudy 37 2.6 28 -2.2 71 71 NNW 18 30 30.24 1024 10 16.09344 0 0
6:35 pm 18:35 Cloudy 36 2.1 29 -1.7 76 76 NNW 20 31 30.24 1024 10 16.09344 0 0
6:55 pm 18:55 Cloudy 36 2 28 -2 75 75 NNW 14 22 30.27 1025 10 16.09344 0 0
7:15 pm 19:15 Cloudy 36 2 28 -2 75 75 NNW 12 19 30.3 1026 10 16.09344 0 0
7:35 pm 19:35 Mostly Cloudy 34 1.3 28 -2.3 77 77 NNW 9 15 30.3 1026 10 16.09344 0 0
7:55 pm 19:55 Partly Cloudy 32 0 26 -3.1 80 80 NNW 7 11 30.3 1026 10 16.09344 0 0
8:15 pm 20:15 Mostly Cloudy 33 0.4 28 -2.3 82 82 NW 6 9 30.3 1026 10 16.09344 0 0
8:35 pm 20:35 Partly Cloudy 31 -0.4 27 -3 83 83 NW 8 13 30.3 1026 10 16.09344 0 0
8:55 pm 20:55 Partly Cloudy 30 -1.2 26 -3.5 85 85 NW 8 13 30.33 1027 10 16.09344 0 0
9:15 pm 21:15 Cloudy 30 -1 26 -3.4 84 84 NNW 6 9 30.33 1027 10 16.09344 0 0
9:35 pm 21:35 Cloudy 30 -1 26 -3.3 85 85 N 3 6 30.33 1027 10 16.09344 0 0
9:55 pm 21:55 Cloudy 31 -0.4 27 -2.6 85 85 NNW 3 6 30.3 1026 10 16.09344 0 0
10:15 pm 22:15 Cloudy 33 0.7 28 -2 82 82 NNW 7 11 30.3 1026 10 16.09344 0 0
10:35 pm 22:35 Cloudy 34 1 28 -2.1 80 80 NNW 8 13 30.3 1026 10 16.09344 0 0
10:55 pm 22:55 Cloudy 34 0.9 28 -2.5 78 78 NNW 8 13 30.3 1026 10 16.09344 0 0
11:15 pm 23:15 Mostly Cloudy 32 0.1 24 -4.6 71 71 N 6 9 30.27 1025 10 16.09344 0 0
11:35 pm 23:35 Clear 28 -2.1 22 -5.8 76 76 NNW 7 11 30.33 1027 10 16.09344 0 0
11:55 pm 23:55 Partly Cloudy 26 -3.4 21 -6.1 82 82 WNW 7 11 30.33 1027 10 16.09344 0 0

Powered by AerisWeather